This is the latest recevied weather packets stored in our database for station/object EA1HTW-13. If no packets are shown the sender has not sent any weather packets the latest 10 day(s).
| Time | Temp. | Humidity | Pressure | Rain* | Wind** | Luminosity | Snow |
|---|---|---|---|---|---|---|---|
| 1777209801 | 25° C | 47% | 1010.5 hPa | 0 mm | - | - | - |
| 1777209262 | 24.44° C | 48% | 1010.6 hPa | 0 mm | - | - | - |
| 1777208721 | 24.44° C | 49% | 1010.7 hPa | 0 mm | - | - | - |
| 1777208183 | 24.44° C | 50% | 1010.8 hPa | 0 mm | - | - | - |
| 1777207642 | 23.33° C | 52% | 1010.8 hPa | 0 mm | - | - | - |
| 1777207102 | 22.78° C | 54% | 1010.8 hPa | 0 mm | - | - | - |
| 1777206562 | 22.78° C | 53% | 1011 hPa | 0 mm | - | - | - |
| 1777206022 | 22.78° C | 52% | 1011 hPa | 0 mm | - | - | - |
| 1777205482 | 22.78° C | 52% | 1011.2 hPa | 0 mm | - | - | - |
| 1777204943 | 22.78° C | 53% | 1011.2 hPa | 0 mm | - | - | - |
| 1777204402 | 22.78° C | 54% | 1011.2 hPa | 0 mm | - | - | - |
| 1777203863 | 22.22° C | 55% | 1011.1 hPa | 0 mm | - | - | - |
| 1777203322 | 22.22° C | 60% | 1011.3 hPa | 0 mm | - | - | - |
| 1777202783 | 22.22° C | 61% | 1011.4 hPa | 0 mm | - | - | - |
| 1777202243 | 21.67° C | 60% | 1011.5 hPa | 0 mm | - | - | - |
| 1777201702 | 21.67° C | 59% | 1011.5 hPa | 0 mm | - | - | - |
| 1777201161 | 21.67° C | 59% | 1011.7 hPa | 0 mm | - | - | - |
| 1777200622 | 21.67° C | 59% | 1011.5 hPa | 0 mm | - | - | - |
| 1777200081 | 21.11° C | 61% | 1011.7 hPa | 0 mm | - | - | - |
| 1777199542 | 20.56° C | 60% | 1011.6 hPa | 0 mm | - | - | - |
| 1777199002 | 21.11° C | 59% | 1011.6 hPa | 0 mm | - | - | - |
| 1777198463 | 21.11° C | 61% | 1011.7 hPa | 0 mm | - | - | - |
| 1777197923 | 20.56° C | 60% | 1011.7 hPa | 0 mm | - | - | - |
| 1777197382 | 21.11° C | 62% | 1011.6 hPa | 0 mm | - | - | - |
| 1777196843 | 21.11° C | 62% | 1011.6 hPa | 0 mm | - | - | - |
* Rain latest hour (hover to see other rain measurements)
** Current wind speed in m/s (hover to see current wind gust speed)